RH
95 95 94 96 91 89 92 91 86 86 81 77 84 88 93 93 90 77 58 47 45 41 35 55 87 91 68 30 26 17 18 18 19 16 24 24 23 18 20 19 17 18 16 15 13 12 12
91 89 94 96 94 95 93 81 82 89 91 89 92 93 90 92 93 93 91 68 46 39 40 65 90 95 63 50 22 16 15 19 16 9 19 18 20 16 17 18 20 17 16 17 15 14 14
91 93 96 97 90 82 77 82 89 92 92 93 95 94 95 93 90 87 70 48 37 32 39 50 96 83 54 35 21 15 16 18 14 15 13 17 18 18 18 21 17 18 21 18 17 17 16
92 98 98 95 82 83 92 90 89 92 92 91 91 91 91 90 76 60 56 47 37 36 40 70 84 75 47 24 24 24 21 19 18 19 14 16 18 23 20 17 19 20 22 25 18 15 15
92 96 95 92 90 85 81 83 85 80 89 91 90 89 88 77 63 61 50 42 40 48 72 72 78 70 44 34 35 28 27 26 24 22 16 15 16 26 24 28 26 23 26 24 20 14 15
86 86 85 85 84 82 83 81 82 79 88 89 87 87 86 79 66 56 49 43 37 46 69 55 45 62 40 24 22 28 31 30 33 28 20 17 18 19 20 27 36 28 26 22 20 17 16
81 85 84 82 83 82 82 82 83 85 88 88 87 88 88 84 76 51 60 31 27 29 34 33 23 35 20 14 15 15 14 25 31 32 30 17 21 19 16 22 23 22 21 21 18 15 18
84 86 87 82 84 79 77 80 86 89 90 90 91 90 90 72 49 48 51 34 41 52 71 34 28 26 24 24 33 26 18 23 32 38 24 14 18 12 12 15 23 24 26 23 16 13 19
84 83 83 82 80 81 84 88 90 89 85 89 91 92 89 45 48 54 41 41 42 46 59 30 19 22 23 32 38 34 22 20 28 34 25 14 13 9 11 15 22 27 27 24 16 14 14
85 84 80 80 84 90 91 86 88 87 86 86 87 90 86 45 54 39 32 38 46 54 74 18 28 31 35 32 41 26 24 20 22 31 26 17 10 14 14 17 20 30 23 19 16 20 24
83 84 81 87 93 90 79 86 87 91 94 91 90 90 58 67 58 39 38 45 52 64 54 13 23 30 27 34 29 32 22 19 22 26 25 24 15 16 18 19 17 24 16 17 19 23 21
82 80 85 91 83 85 85 79 88 85 88 81 79 77 49 44 45 42 53 60 50 76 42 14 15 28 30 22 23 24 27 26 15 25 23 23 18 19 17 17 23 18 22 24 23 23 34
81 86 94 88 88 89 78 84 83 80 82 78 70 53 64 56 47 61 66 45 46 55 13 18 27 21 22 33 45 41 44 38 26 39 67 33 39 22 19 26 24 23 32 52 55 47 39
82 84 78 89 87 83 82 82 76 77 78 77 60 61 64 56 65 71 54 41 41 17 18 18 22 23 38 59 56 69 37 31 22 22 36 44 87 39 31 28 31 34 35 39 49 40 28
88 79 79 93 85 81 79 80 77 78 77 74 58 52 48 63 75 63 48 47 30 25 24 29 28 39 52 46 66 97 58 26 20 23 83 43 76 51 35 28 36 53 47 28 56 44 46
94 77 81 89 83 73 75 82 79 75 75 68 53 41 47 71 75 59 51 42 31 25 27 31 59 42 77 66 89 67 40 21 20 21 44 37 60 45 37 34 34 42 30 53 49 50 41
85 76 87 88 87 76 78 83 78 75 70 57 55 37 53 70 69 48 69 39 34 29 30 45 56 72 83 87 90 66 30 17 16 27 25 38 44 52 42 43 40 48 52 52 45 51 55
84 78 83 85 86 88 78 79 76 75 68 71 46 56 52 65 72 45 46 39 40 40 37 45 53 77 97 92 90 92 61 19 19 20 26 25 39 62 64 28 26 28 35 39 50 55 44
81 68 79 85 88 80 75 81 79 78 71 54 39 33 49 61 61 50 37 37 34 45 43 56 85 96 98 100 97 99 69 43 32 28 32 29 46 66 87 46 43 47 36 42 58 54 57
81 73 83 86 82 78 76 81 84 81 72 64 62 70 38 41 50 48 48 42 44 42 54 55 89 98 92 100 100 99 94 65 46 43 60 43 45 51 55 42 41 52 49 43 45 58 51
85 79 76 90 74 64 76 80 86 82 76 68 68 60 44 60 50 51 45 39 44 62 53 54 91 57 82 96 88 97 96 71 52 60 47 46 63 66 50 41 40 44 46 44 49 40 46
87 81 82 87 77 70 78 81 87 88 72 58 95 47 40 36 40 46 53 44 41 44 62 64 56 51 49 58 72 90 79 75 98 72 64 51 40 34 39 33 34 39 30 24 23 27 33
86 78 77 85 71 71 88 87 88 84 75 50 46 46 41 44 31 36 49 41 40 36 39 34 47 51 48 58 60 62 50 52 50 53 74 66 40 39 47 27 26 33 31 29 28 55 60
84 84 85 79 64 84 87 86 91 88 76 61 47 42 43 51 31 35 34 32 33 31 37 36 43 53 44 47 43 36 44 40 38 40 38 36 38 30 39 36 40 39 30 29 47 59 63
86 85 86 80 77 83 81 84 90 84 84 79 57 52 45 60 34 33 39 36 34 31 34 38 42 42 47 47 49 36 41 45 33 36 36 36 33 39 37 33 39 50 42 44 45 87 59
77 84 85 84 77 74 84 77 88 84 87 89 66 70 60 64 41 38 42 35 39 39 39 36 37 43 49 44 47 41 47 42 38 35 30 34 34 35 40 37 65 79 48 38 38 92 74
76 82 85 88 76 62 70 73 81 89 90 99 92 82 70 78 42 43 46 49 37 38 41 38 47 52 48 58 60 48 45 34 43 41 43 43 45 50 49 44 69 93 70 48 77 99 88
71 78 77 88 78 70 72 74 77 86 91 96 92 88 78 78 50 46 45 51 44 41 51 42 53 55 66 66 62 63 61 50 54 43 53 59 75 60 52 53 86 93 56 85 98 97 96
70 71 80 83 71 74 67 62 74 80 84 97 100 96 96 83 56 68 64 59 53 48 52 42 52 62 60 73 70 69 71 56 54 90 48 75 71 79 91 96 97 89 91 93 78 82 86
Wind_Speed
14 12 11 9 8 6 4 2 3 5 7 8 9 10 11 14 16 19 22 24 27 28 27 25 22 18 14 10 20 22 20 21 20 14 16 13 20 21 29 27 26 31 27 26 24 23 21
14 12 11 10 7 6 3 1 3 4 7 9 10 12 14 16 18 20 23 27 29 30 28 27 23 15 14 23 14 15 15 10 12 20 20 19 17 19 21 28 27 26 28 26 24 21 20
14 13 13 10 6 4 2 1 2 4 7 8 10 12 15 18 20 22 25 29 31 30 28 26 19 10 17 26 13 16 16 17 16 15 17 22 19 18 19 23 22 27 23 21 21 27 24
15 14 12 9 5 4 4 2 1 3 6 8 11 13 15 19 22 24 26 29 29 29 26 15 10 9 10 12 14 24 26 28 25 27 25 20 16 18 22 14 21 17 25 24 24 21 20
14 12 11 9 7 4 2 1 1 5 6 9 11 14 17 20 24 25 28 28 29 20 10 6 7 7 14 1 12 13 18 21 20 20 24 22 19 18 16 20 18 24 21 27 26 25 23
14 13 11 9 7 5 3 1 2 4 7 9 12 15 18 20 23 24 26 27 24 11 9 11 11 5 12 11 3 7 12 14 13 14 17 21 12 18 20 18 23 23 24 22 23 19 21
15 12 10 10 8 5 4 1 3 5 7 10 12 14 18 20 22 23 22 25 8 6 6 12 18 20 25 28 29 28 26 14 14 16 20 23 19 23 35 28 24 22 20 21 16 20 19
15 14 11 10 7 5 3 1 2 4 7 10 12 14 17 19 21 11 16 10 11 6 15 21 26 27 32 25 17 20 23 20 18 21 21 19 26 31 24 24 23 22 19 17 15 17 8
15 12 12 10 7 5 3 1 2 4 7 9 11 13 16 19 10 10 12 9 11 13 8 21 16 13 10 7 18 20 20 21 23 22 23 27 23 24 25 21 21 19 19 19 17 12 14
15 12 10 9 8 4 3 0 2 4 6 8 10 13 15 21 9 14 5 13 12 11 6 8 8 4 4 5 10 13 18 23 24 27 23 25 23 18 22 23 20 19 20 21 18 14 14
15 13 11 9 6 5 2 2 3 5 7 8 10 13 15 9 10 10 12 14 13 1 7 6 5 5 8 8 11 15 3 20 27 26 20 19 21 19 23 23 18 17 18 19 16 16 15
15 12 12 8 6 4 2 1 2 5 7 9 10 12 14 9 8 8 14 15 9 6 8 5 10 17 18 19 21 15 19 15 22 26 21 17 12 15 15 19 14 21 11 11 13 12 14
14 12 12 9 7 5 3 2 4 6 8 10 11 12 8 5 9 15 14 12 6 7 12 13 23 24 25 20 21 23 20 18 21 20 16 15 18 16 13 12 16 17 16 8 9 10 11
16 12 9 9 6 4 2 3 5 6 8 10 11 6 4 5 13 11 13 9 9 12 20 23 20 27 25 16 16 16 13 16 25 25 12 15 7 15 16 17 13 19 17 7 11 13 13
15 13 10 9 6 5 3 3 5 6 9 10 6 0 2 10 8 7 8 5 11 14 17 18 25 18 16 15 14 13 19 19 23 25 8 14 5 13 15 11 16 17 15 18 6 9 4
16 13 11 10 7 6 3 3 5 7 8 8 6 3 3 8 7 12 5 8 11 13 18 18 17 10 15 28 16 16 12 17 26 19 12 5 6 12 15 11 7 14 14 6 6 4 6
16 12 11 10 7 6 4 3 5 6 5 5 6 4 5 7 5 3 4 10 13 14 13 8 14 20 17 22 8 12 7 16 20 19 12 10 9 12 14 13 14 6 10 5 5 3 4
15 13 11 9 7 6 5 2 3 3 4 3 4 1 4 5 3 2 5 11 8 13 14 10 10 14 12 17 9 6 5 11 7 13 13 11 4 12 19 14 9 14 11 10 5 5 1
15 11 13 10 9 7 6 2 2 3 3 7 2 1 2 4 3 5 9 8 11 17 14 7 8 6 11 7 4 7 3 13 3 3 4 6 5 10 6 9 6 10 7 4 3 2 5
15 14 10 11 10 7 6 4 3 3 2 5 1 0 1 2 1 8 9 8 15 8 6 14 10 7 16 6 8 10 8 15 14 9 10 2 5 8 6 12 14 8 10 7 3 3 1
17 15 14 14 10 7 7 5 4 3 3 5 2 2 1 0 2 7 7 9 13 12 9 15 5 20 16 8 13 14 14 8 13 20 7 5 6 8 5 11 12 11 10 6 4 2 3
17 15 15 14 10 7 8 5 5 5 6 6 3 3 4 1 4 5 1 7 11 13 5 13 18 21 17 18 18 19 15 11 7 11 10 12 5 8 12 10 10 10 6 2 2 3 6
17 18 15 15 9 6 7 6 5 7 8 3 1 1 5 2 2 4 3 7 12 11 6 13 16 16 14 22 23 16 10 7 7 4 5 7 4 4 4 5 7 7 9 6 5 19 12
19 18 16 14 11 10 8 7 6 9 12 4 1 5 2 3 4 4 6 8 10 11 10 13 14 14 15 22 17 3 2 2 5 5 6 4 2 2 4 4 4 7 10 7 16 18 15
18 18 17 15 12 10 9 8 6 9 14 7 2 3 3 4 3 2 7 7 8 6 8 8 13 14 16 14 5 2 4 4 8 10 7 7 4 2 1 4 13 8 9 9 8 10 16
19 18 16 15 14 12 10 8 7 8 11 7 2 4 3 3 3 4 6 3 6 8 6 7 13 10 14 5 4 5 4 8 5 5 6 3 3 1 2 4 3 7 16 14 8 4 15
18 18 17 17 15 13 11 8 9 7 7 11 4 4 3 3 4 5 7 7 6 7 7 8 15 8 12 7 5 5 4 5 4 5 6 5 5 6 2 2 7 12 21 20 4 4 8
19 18 16 19 15 15 14 9 10 8 5 10 3 9 4 3 7 8 6 7 6 6 6 11 7 7 6 7 5 4 4 6 4 7 6 7 6 5 3 2 4 18 8 6 5 7 8
20 18 17 19 16 15 14 14 10 9 7 8 4 9 10 5 6 11 13 15 14 13 7 4 2 6 4 3 5 4 3 3 5 1 10 3 5 4 6 3 4 7 9 8 7 7 9
Wind_Direction
169 168 165 160 156 144 123 77 29 18 6 358 353 347 338 329 329 327 324 321 319 318 319 314 310 310 320 263 248 271 281 288 272 261 249 227 225 230 233 233 239 235 241 248 257 255 259
169 170 165 165 159 141 124 355 16 7 355 354 348 343 337 330 327 323 320 317 317 316 312 307 303 295 268 270 269 263 270 265 267 244 239 243 245 231 242 239 241 242 240 250 247 252 245
170 173 169 166 167 174 170 100 44 354 348 349 344 341 331 328 324 323 320 316 312 310 308 306 302 259 253 251 263 268 259 251 270 269 261 249 244 252 240 250 244 256 256 246 245 241 241
166 161 164 166 172 159 136 119 352 342 346 353 346 340 329 327 323 320 318 315 309 306 304 295 279 241 254 268 266 256 260 262 259 252 248 256 268 267 248 259 247 240 241 248 233 236 234
166 163 161 160 159 169 179 171 327 343 358 353 343 332 332 328 326 322 317 313 312 314 288 269 206 216 272 287 242 260 239 255 256 248 235 234 243 241 233 234 239 230 237 231 243 237 227
169 168 167 169 165 157 150 189 26 351 350 341 338 336 329 329 325 323 320 317 301 288 251 241 251 242 234 260 190 257 262 279 250 244 220 218 221 226 230 218 222 218 222 241 250 211 222
174 173 173 169 164 158 134 49 341 347 345 346 346 336 332 328 324 326 331 328 12 227 328 285 283 259 275 291 288 276 270 248 230 241 217 204 209 214 219 220 232 251 249 237 227 242 231
174 170 164 168 158 149 129 100 16 352 352 343 337 336 327 324 326 336 331 9 30 316 300 273 258 261 269 277 273 263 264 228 243 233 214 212 220 223 227 221 226 240 250 257 270 266 226
174 173 168 169 160 148 148 145 7 340 345 335 331 329 327 327 327 323 333 12 336 330 275 296 258 254 250 250 264 272 249 241 238 226 228 222 221 224 228 220 221 222 233 247 260 260 251
173 173 171 167 151 154 175 53 19 351 336 335 325 325 324 336 288 337 7 341 333 331 280 271 178 162 192 261 267 290 233 231 237 242 230 226 224 212 218 217 215 221 225 247 259 256 251
170 173 167 161 153 176 183 90 23 335 328 324 321 328 332 339 317 330 332 324 319 316 293 53 110 97 238 234 285 309 164 218 239 216 240 217 221 221 211 211 206 229 233 239 240 252 257
172 176 167 160 164 175 167 105 328 316 321 321 324 326 337 347 294 332 319 309 269 247 267 337 357 343 317 301 310 286 247 223 230 250 241 222 203 201 203 193 216 226 218 223 239 243 243
174 175 172 169 173 169 175 243 289 308 312 322 323 335 345 329 328 323 318 272 263 253 331 345 334 330 319 312 314 303 251 198 212 220 227 182 212 189 194 174 194 202 199 184 203 210 238
171 165 176 177 171 174 197 255 281 303 310 319 332 0 331 325 318 318 278 272 290 329 332 340 327 312 296 21 312 319 250 196 213 224 201 183 198 174 182 195 181 195 192 210 214 210 218
181 172 182 174 182 194 211 248 279 297 307 320 332 315 300 341 342 306 281 322 2 335 327 320 317 310 324 327 325 299 242 195 206 224 160 194 214 165 215 190 192 208 215 237 263 232 270
177 176 178 179 191 195 203 259 283 298 313 323 311 269 60 341 335 285 306 319 342 337 325 318 307 301 311 308 316 331 225 184 204 219 108 215 129 186 185 189 204 218 192 186 228 236 226
176 172 181 183 188 188 201 238 288 305 316 330 271 247 47 339 308 285 324 354 332 327 338 329 293 293 291 302 294 305 215 166 199 195 200 269 141 185 181 201 185 174 173 222 242 302 283
180 172 183 184 187 204 211 223 285 288 342 287 277 290 27 328 236 218 344 335 331 324 318 310 302 287 277 296 291 291 326 161 147 189 214 215 231 171 198 204 256 190 196 207 234 182 253
180 195 188 191 193 202 214 222 262 263 348 297 311 328 122 292 338 358 14 342 346 345 332 324 300 317 295 302 277 245 60 11 176 182 247 183 208 176 178 180 172 179 170 124 85 304 197
190 193 192 201 190 208 206 221 249 266 293 272 50 178 145 173 168 317 3 353 359 20 19 346 297 307 330 344 353 350 43 27 45 29 341 246 197 219 255 172 172 168 139 171 191 208 195
191 192 201 195 190 205 212 218 250 259 217 268 333 238 77 231 124 339 338 352 358 11 357 343 330 355 351 346 333 6 11 11 42 12 23 23 110 75 65 114 143 154 142 156 153 289 296
184 193 200 190 189 217 212 215 238 242 180 259 148 262 169 217 264 286 43 353 352 351 347 330 355 346 339 3 350 336 349 32 27 349 20 340 73 84 91 94 114 114 102 189 230 262 278
192 196 203 184 195 215 212 209 226 211 201 254 146 155 279 143 234 276 42 323 319 329 323 347 345 338 346 347 325 312 313 322 326 9 119 4 1 124 105 95 124 116 47 33 101 45 26
199 196 189 195 206 201 206 204 222 210 209 292 311 300 278 266 274 355 332 321 318 325 313 327 355 345 331 323 309 194 303 316 43 96 332 161 189 312 119 195 157 73 38 39 74 55 33
194 195 191 197 195 195 209 207 221 213 213 273 217 302 308 286 307 241 330 331 306 312 323 338 351 337 325 318 326 237 174 201 74 48 46 15 323 89 164 87 115 93 42 17 337 59 20
197 193 194 198 193 207 201 207 215 208 210 214 216 319 306 284 81 357 312 317 340 344 329 352 355 335 340 301 309 343 35 322 13 115 75 67 316 334 167 144 150 36 5 355 296 94 10
196 193 200 197 197 196 207 218 208 200 200 207 230 232 289 290 326 336 10 341 338 340 313 345 345 350 356 341 332 353 37 310 8 23 15 25 21 21 92 45 90 353 315 311 265 36 14
196 198 205 195 198 197 205 207 205 198 192 197 203 201 232 274 299 301 286 292 324 317 333 352 326 13 354 11 358 5 338 359 316 46 13 14 331 32 346 337 95 355 10 43 341 37 29
200 197 201 198 201 196 201 220 215 210 204 216 190 208 223 271 304 307 282 276 280 290 303 306 320 341 7 335 23 299 304 330 350 45 35 43 24 5 25 56 51 35 60 34 42 58 39